Wetterdaten Sommer 2022

Datum T max T min Regen
01.06.2022 23.7 °C 10.2 °C 0 mm
02.06.2022 23.2 °C 11.5 °C 0 mm
03.06.2022 26.3 °C 12.1 °C 0.4 mm
04.06.2022 24.6 °C 13.9 °C 5.8 mm
05.06.2022 23.6 °C 15.4 °C 19.2 mm
06.06.2022 22.8 °C 13.4 °C 0 mm
07.06.2022 22.7 °C 14.9 °C 0.4 mm
08.06.2022 23.2 °C 12.8 °C 1.8 mm
09.06.2022 20.2 °C 13.3 °C 0 mm
10.06.2022 24.3 °C 10.3 °C 0 mm
12.06.2022 28.9 °C 13.4 °C 0 mm
13.06.2022 23.6 °C 14.2 °C 3.4 mm
14.06.2022 25.9 °C 10.1 °C 0 mm
15.06.2022 30.1 °C 12.4 °C 0 mm
16.06.2022 28.8 °C 14.6 °C 0 mm
17.06.2022 28.4 °C 13.2 °C 0 mm
18.06.2022 34.1 °C 15.8 °C 0 mm
19.06.2022 35.2 °C 18.3 °C 0 mm
20.06.2022 26.2 °C 15.2 °C 0.2 mm
21.06.2022 27.4 °C 11.2 °C 0 mm
22.06.2022 23 °C 18.7 °C 5.2 mm
23.06.2022 29.6 °C 17 °C 0 mm
24.06.2022 25.1 °C 16.1 °C 13.8 mm
25.06.2022 26.6 °C 13.6 °C 0.2 mm
26.06.2022 28.4 °C 17.1 °C 0 mm
27.06.2022 21.7 °C 16.4 °C 9.2 mm
28.06.2022 24.8 °C 14.8 °C 0 mm
29.06.2022 27.8 °C 15.8 °C 0 mm
30.06.2022 29.9 °C 15.3 °C 2 mm
01.07.2022 20.1 °C 13.2 °C 12 mm
02.07.2022 25.5 °C 12.7 °C 0 mm
03.07.2022 29.6 °C 14.3 °C 0 mm
04.07.2022 26.3 °C 16.8 °C 0 mm
05.07.2022 26.9 °C 12.9 °C 0 mm
06.07.2022 23.4 °C 14.6 °C 0 mm
07.07.2022 20.4 °C 13.8 °C 0 mm
08.07.2022 22.8 °C 13.1 °C 0 mm
09.07.2022 25.4 °C 11.1 °C 0.8 mm
10.07.2022 21.1 °C 14.6 °C 0 mm
11.07.2022 23.6 °C 15.3 °C 0 mm
12.07.2022 27.1 °C 13.1 °C 0 mm
13.07.2022 30.6 °C 15.3 °C 0 mm
14.07.2022 33.2 °C 16.1 °C 0 mm
15.07.2022 25.7 °C 13.3 °C 0 mm
16.07.2022 26.1 °C 10.9 °C 0 mm
17.07.2022 29.1 °C 11.4 °C 0 mm
18.07.2022 32.6 °C 12.7 °C 0 mm
19.07.2022 34.8 °C 15.8 °C 0 mm
20.07.2022 34.6 °C 18.3 °C 4.4 mm
21.07.2022 28.1 °C 18.8 °C 0.8 mm
22.07.2022 31.4 °C 15.9 °C 0 mm
23.07.2022 29.2 °C 19.3 °C 0.4 mm
24.07.2022 30.9 °C 17.4 °C 0 mm
25.07.2022 34.7 °C 19.2 °C 0 mm
26.07.2022 26.6 °C 18 °C 1.6 mm
27.07.2022 25.4 °C 16 °C 0 mm
28.07.2022 29.3 °C 14.3 °C 0.4 mm
29.07.2022 26.3 °C 17.2 °C 0 mm
30.07.2022 28.6 °C 16.2 °C 0 mm
31.07.2022 31.2 °C 14.6 °C 0 mm
01.08.2022 28.8 °C 19.6 °C 0 mm
02.08.2022 29.7 °C 17.6 °C 0 mm
03.08.2022 33.1 °C 17.1 °C 0 mm
04.08.2022 36 °C 19.3 °C 0 mm
05.08.2022 31.4 °C 19.8 °C 1 mm
06.08.2022 25.4 °C 16.6 °C 0 mm
07.08.2022 27.4 °C 12.6 °C 0 mm
08.08.2022 29.3 °C 12.1 °C 0 mm
09.08.2022 29.5 °C 13.3 °C 0 mm
10.08.2022 28.7 °C 14.6 °C 0 mm
11.08.2022 29.2 °C 13.9 °C 0 mm
12.08.2022 28.2 °C 14.4 °C 0 mm
13.08.2022 28.9 °C 13.3 °C 0 mm
14.08.2022 31.4 °C 14.2 °C 0 mm
15.08.2022 27.9 °C 19.5 °C 0 mm
16.08.2022 28.4 °C 15.3 °C 0 mm
17.08.2022 26.8 °C 15.9 °C 0.4 mm
18.08.2022 26.8 °C 18.1 °C 0.4 mm
19.08.2022 23.8 °C 19.2 °C 0 mm
20.08.2022 25.2 °C 18.9 °C 7.8 mm
21.08.2022 26.8 °C 13.1 °C 0 mm
22.08.2022 27.8 °C 12.4 °C 0 mm
23.08.2022 28.9 °C 14.8 °C 0 mm
24.08.2022 29.3 °C 14.8 °C 0 mm
25.08.2022 29.5 °C 15.7 °C 0 mm
26.08.2022 29.6 °C 17.1 °C 3.6 mm
27.08.2022 21.9 °C 17.9 °C 10.4 mm
28.08.2022 25.2 °C 17.4 °C 0.2 mm
29.08.2022 26.6 °C 13.1 °C 0 mm
30.08.2022 28.1 °C 14.2 °C 0 mm
31.08.2022 23.8 °C 16.2 °C 0 mm
 Hinweis zur Datenqualität
∅ Temperatur

21.3 °C

Abweichung vom Mittel

+2.6 °C

Niederschlag

105.8 mm

Abweichung vom Mittel

48 %

36 °C

Lufttemperatur
04.08.2022

1030 hPa

Luftdruck
08.07.2022

25.9 km/h

Windböen
13.06.2022

105.79999 mm

Niederschlag
 

10.1 °C

Lufttemperatur
14.06.2022

10 °C

Bodentemperatur 5cm
05.05.2022

1004 hPa

Luftdruck
14.08.2022
 Hinweis zur Datenqualität